Flag for U.S.A. Weather past 2 weeks in Peoria, Illinois, U.S.A.

Now
58 °F

Clear.


Feels Like: 58 °F
Forecast: 39 / 68 °F
Wind: 5 mph from Northeast

Location: Greater Peoria Regional Airport


UV Index: 5 (Moderate)

Visibility: 10 mi


Pressure: 30.27 "Hg

Humidity: 31%

Dew point: 27 °F

Location of PeoriaLocation

Historic Weather in Peoria

°F

Peoria temperature yesterday

Maximum temperature yesterday: 57 °F (at 2:54 PM)
Minimum temperature yesterday: 40 °F (at 5:54 AM)
Average temperature yesterday: 50 °F

Past Weeks' High & Low Weather Summary

 TemperatureHumidityPressure
High80 °F (Apr 12, 2:54 PM)93% (Apr 3, 8:54 PM)30.35 "Hg (Apr 3, 8:54 PM)
Low27 °F (Apr 15, 6:54 AM)17% (Apr 11, 3:54 PM)29.40 "Hg (Apr 13, 11:54 PM)
Average50 °F56%29.96 "Hg
* Reported Apr 3 8:54 PM — Apr 18 8:54 PM, Peoria, Weather by CustomWeather, © 2014

Note: Actual official high and low records may vary slightly from our data, if they occured in-between our weather recording intervals... More about our weather records

Advertising

Historic Weather Conditions — Data for Previous 24 hours

 ConditionsComfort  
Time TempWeatherWind HumidityBarometerVisibility
8:54 PM
Apr 18
58 °FClear.5 mph31%30.27 "Hg10 mi
7:54 PM60 °FSunny.5 mph30%30.25 "Hg10 mi
6:54 PM64 °FSunny.6 mph23%30.24 "Hg10 mi
5:54 PM65 °FSunny.5 mph21%30.26 "Hg10 mi
4:54 PM65 °FSunny.No wind26%30.26 "Hg10 mi
3:54 PM65 °FSunny.8 mph31%30.27 "Hg10 mi
2:54 PM66 °FSunny.5 mph32%30.29 "Hg10 mi
1:54 PM62 °FSunny.5 mph30%30.32 "Hg10 mi
12:54 PM61 °FSunny.5 mph32%30.33 "Hg10 mi
11:54 AM60 °FSunny.6 mph38%30.35 "Hg10 mi
10:54 AM55 °FSunny.6 mph51%30.34 "Hg10 mi
9:54 AM53 °FSunny.7 mph52%30.34 "Hg10 mi
8:54 AM50 °FSunny.3 mph61%30.34 "Hg10 mi
7:54 AM44 °FSunny.5 mph71%30.34 "Hg8 mi
6:54 AM41 °FClear.No wind76%30.33 "Hg8 mi
5:54 AM40 °FClear.3 mph80%30.31 "Hg9 mi
4:54 AM43 °FClear.No wind71%30.29 "Hg10 mi
3:54 AM45 °FOvercast.5 mph68%30.27 "Hg10 mi
2:54 AM45 °FPassing clouds.3 mph68%30.28 "Hg10 mi
1:54 AM47 °FMostly cloudy.No wind66%30.28 "Hg10 mi
12:54 AM48 °FMostly cloudy.No wind63%30.29 "Hg10 mi
11:54 PM
Apr 17
48 °FMostly cloudy.3 mph63%30.29 "Hg10 mi
10:54 PM49 °FMostly cloudy.3 mph61%30.27 "Hg10 mi
Weather by CustomWeather, © 2014

See weather overview